N81BZ TFFA-TFFJ

Flight info

Callsign N81BZ
Flight time 0h 54m
Altitude 8000
Route ANU
Aircraft C208/L-SDFGR/C

Departure

Time 2026-05-04 13:33
Airport La Désirade Airport (TFFA)

Arrival

Time 2026-05-04 14:28
Airport St. Jean Airport (TFFJ)
Time Latitude Longitude Altitude Speed Heading
2026-05-04 13:26 16.29687 -61.08659 20 ft 0 kts 243°
2026-05-04 13:30 16.29684 -61.08665 20 ft 3 kts 243°
2026-05-04 13:31 16.29660 -61.08687 20 ft 1 kts 212°
2026-05-04 13:31 16.29642 -61.08705 20 ft 8 kts 238°
2026-05-04 13:31 16.29617 -61.08702 20 ft 0 kts 77°
2026-05-04 13:32 16.29650 -61.08598 20 ft 42 kts 71°
2026-05-04 13:32 16.29803 -61.08155 71 ft 80 kts 73°
2026-05-04 13:33 16.30014 -61.07603 300 ft 84 kts 72°
2026-05-04 13:33 16.30206 -61.07033 436 ft 83 kts 84°
2026-05-04 13:33 16.30171 -61.06416 562 ft 92 kts 109°
2026-05-04 13:33 16.30104 -61.05740 677 ft 101 kts 79°
2026-05-04 13:34 16.30010 -61.05047 836 ft 104 kts 120°
2026-05-04 13:34 16.29370 -61.04684 1028 ft 115 kts 170°
2026-05-04 13:34 16.28561 -61.04745 1228 ft 122 kts 196°
2026-05-04 13:34 16.27834 -61.05223 1418 ft 130 kts 227°
2026-05-04 13:35 16.27316 -61.06017 1639 ft 136 kts 237°
2026-05-04 13:35 16.27676 -61.07863 2047 ft 142 kts 328°
2026-05-04 13:35 16.28500 -61.08425 2254 ft 144 kts 326°
2026-05-04 13:36 16.29259 -61.09127 2453 ft 147 kts 321°
2026-05-04 13:36 16.30023 -61.09850 2658 ft 150 kts 322°
2026-05-04 13:36 16.30809 -61.10558 2842 ft 153 kts 323°
2026-05-04 13:36 16.31632 -61.11272 3039 ft 155 kts 324°
2026-05-04 13:37 16.32467 -61.11985 3235 ft 156 kts 324°
2026-05-04 13:37 16.33313 -61.12700 3429 ft 157 kts 324°
2026-05-04 13:37 16.34163 -61.13421 3620 ft 158 kts 323°
2026-05-04 13:37 16.35015 -61.14145 3811 ft 158 kts 323°
2026-05-04 13:38 16.35871 -61.14872 4009 ft 159 kts 324°
2026-05-04 13:38 16.36728 -61.15598 4198 ft 159 kts 324°
2026-05-04 13:38 16.37586 -61.16322 4397 ft 159 kts 324°
2026-05-04 13:38 16.38442 -61.17047 4594 ft 158 kts 325°
2026-05-04 13:39 16.39295 -61.17769 4792 ft 158 kts 325°
2026-05-04 13:39 16.40147 -61.18490 4986 ft 158 kts 326°
2026-05-04 13:39 16.40997 -61.19208 5175 ft 158 kts 326°
2026-05-04 13:39 16.41853 -61.19928 5372 ft 158 kts 326°
2026-05-04 13:40 16.42707 -61.20650 5566 ft 158 kts 326°
2026-05-04 13:40 16.43563 -61.21374 5761 ft 158 kts 326°
2026-05-04 13:40 16.44419 -61.22098 5953 ft 159 kts 326°
2026-05-04 13:40 16.45281 -61.22827 6154 ft 160 kts 326°
2026-05-04 13:41 16.46146 -61.23557 6355 ft 160 kts 326°
2026-05-04 13:41 16.47011 -61.24293 6543 ft 161 kts 325°
2026-05-04 13:41 16.47878 -61.25030 6734 ft 161 kts 325°
2026-05-04 13:42 16.49602 -61.26497 7093 ft 159 kts 325°
2026-05-04 13:42 16.50460 -61.27225 7284 ft 159 kts 325°
2026-05-04 13:42 16.51318 -61.27950 7474 ft 159 kts 325°
2026-05-04 13:42 16.52173 -61.28675 7665 ft 158 kts 325°
2026-05-04 13:43 16.53028 -61.29396 7848 ft 158 kts 325°
2026-05-04 13:43 16.53887 -61.30125 7978 ft 162 kts 325°
2026-05-04 13:43 16.54783 -61.30880 8041 ft 169 kts 325°
2026-05-04 13:43 16.55716 -61.31666 8064 ft 175 kts 325°
2026-05-04 13:44 16.56675 -61.32476 8077 ft 180 kts 324°
2026-05-04 13:44 16.57649 -61.33301 8082 ft 181 kts 324°
2026-05-04 13:44 16.58619 -61.34128 8085 ft 183 kts 325°
2026-05-04 13:44 16.59614 -61.34971 8088 ft 185 kts 324°
2026-05-04 13:45 16.60615 -61.35819 8087 ft 186 kts 325°
2026-05-04 13:45 16.61624 -61.36674 8087 ft 188 kts 326°
2026-05-04 13:45 16.62637 -61.37533 8082 ft 187 kts 324°
2026-05-04 13:45 16.63647 -61.38393 8055 ft 188 kts 324°
2026-05-04 13:46 16.64658 -61.39252 8014 ft 187 kts 323°
2026-05-04 13:46 16.65665 -61.40110 7998 ft 186 kts 324°
2026-05-04 13:46 16.66669 -61.40964 7989 ft 186 kts 324°
2026-05-04 13:46 16.67672 -61.41815 7984 ft 185 kts 325°
2026-05-04 13:47 16.68671 -61.42667 7990 ft 186 kts 325°
2026-05-04 13:47 16.69667 -61.43525 7995 ft 186 kts 324°
2026-05-04 13:47 16.70659 -61.44380 7992 ft 185 kts 324°
2026-05-04 13:47 16.71648 -61.45232 7990 ft 184 kts 324°
2026-05-04 13:48 16.72634 -61.46076 7985 ft 183 kts 324°
2026-05-04 13:48 16.73616 -61.46917 7984 ft 182 kts 325°
2026-05-04 13:48 16.74600 -61.47756 7985 ft 182 kts 324°
2026-05-04 13:48 16.75584 -61.48593 7985 ft 183 kts 325°
2026-05-04 13:49 16.76570 -61.49434 7992 ft 183 kts 325°
2026-05-04 13:49 16.77558 -61.50275 7989 ft 183 kts 324°
2026-05-04 13:49 16.78533 -61.51105 7988 ft 183 kts 325°
2026-05-04 13:49 16.79518 -61.51944 7991 ft 183 kts 324°
2026-05-04 13:50 16.80499 -61.52781 7984 ft 182 kts 324°
2026-05-04 13:50 16.81480 -61.53617 7986 ft 182 kts 325°
2026-05-04 13:50 16.82463 -61.54452 7986 ft 182 kts 325°
2026-05-04 13:50 16.83447 -61.55290 7993 ft 183 kts 324°
2026-05-04 13:51 16.84433 -61.56135 7992 ft 183 kts 324°
2026-05-04 13:51 16.85420 -61.56975 7992 ft 183 kts 324°
2026-05-04 13:51 16.86408 -61.57816 7993 ft 183 kts 324°
2026-05-04 13:51 16.87395 -61.58652 7997 ft 182 kts 324°
2026-05-04 13:52 16.89362 -61.60325 7990 ft 182 kts 324°
2026-05-04 13:52 16.90343 -61.61158 7990 ft 182 kts 325°
2026-05-04 13:52 16.91327 -61.61995 7998 ft 183 kts 324°
2026-05-04 13:53 16.92316 -61.62837 8005 ft 184 kts 324°
2026-05-04 13:53 16.93311 -61.63685 7996 ft 185 kts 324°
2026-05-04 13:53 16.94304 -61.64532 7993 ft 184 kts 324°
2026-05-04 13:54 16.96273 -61.66217 7994 ft 183 kts 324°
2026-05-04 13:54 16.97256 -61.67055 7994 ft 182 kts 324°
2026-05-04 13:54 16.99224 -61.68734 7998 ft 183 kts 324°
2026-05-04 13:55 17.00209 -61.69575 7997 ft 182 kts 324°
2026-05-04 13:55 17.02161 -61.71241 7998 ft 182 kts 323°
2026-05-04 13:55 17.03142 -61.72079 8000 ft 182 kts 324°
2026-05-04 13:56 17.04123 -61.72917 7997 ft 182 kts 323°
2026-05-04 13:56 17.05106 -61.73757 8003 ft 183 kts 323°
2026-05-04 13:56 17.07081 -61.75442 8000 ft 183 kts 323°
2026-05-04 13:57 17.08067 -61.76286 8000 ft 183 kts 324°
2026-05-04 13:57 17.09052 -61.77127 7997 ft 183 kts 323°
2026-05-04 13:58 17.11979 -61.79632 7996 ft 181 kts 323°
2026-05-04 13:58 17.13655 -61.81630 8004 ft 184 kts 308°
2026-05-04 13:58 17.14411 -61.82715 8001 ft 185 kts 308°
2026-05-04 13:59 17.15159 -61.83808 7999 ft 184 kts 307°
2026-05-04 13:59 17.15903 -61.84898 7992 ft 184 kts 308°
2026-05-04 13:59 17.17397 -61.87064 7999 ft 183 kts 308°
2026-05-04 14:00 17.18144 -61.88140 8013 ft 183 kts 308°
2026-05-04 14:00 17.19634 -61.90282 8014 ft 184 kts 309°
2026-05-04 14:00 17.20391 -61.91366 8008 ft 184 kts 308°
2026-05-04 14:01 17.21147 -61.92449 8009 ft 184 kts 308°
2026-05-04 14:01 17.21901 -61.93529 8006 ft 184 kts 308°
2026-05-04 14:01 17.23417 -61.95702 8008 ft 185 kts 308°
2026-05-04 14:02 17.24176 -61.96790 8008 ft 185 kts 308°
2026-05-04 14:02 17.24931 -61.97874 8009 ft 184 kts 308°
2026-05-04 14:02 17.25686 -61.98958 8008 ft 185 kts 308°
2026-05-04 14:02 17.26444 -62.00046 8010 ft 184 kts 308°
2026-05-04 14:03 17.27198 -62.01126 8013 ft 184 kts 308°
2026-05-04 14:03 17.27952 -62.02210 8014 ft 185 kts 308°
2026-05-04 14:03 17.28708 -62.03297 8013 ft 185 kts 308°
2026-05-04 14:03 17.29466 -62.04386 8012 ft 186 kts 308°
2026-05-04 14:04 17.30982 -62.06564 8006 ft 185 kts 308°
2026-05-04 14:04 17.31741 -62.07656 8007 ft 185 kts 308°
2026-05-04 14:04 17.32502 -62.08748 8016 ft 187 kts 308°
2026-05-04 14:05 17.34032 -62.10945 8007 ft 186 kts 308°
2026-05-04 14:05 17.34792 -62.12038 8004 ft 186 kts 308°
2026-05-04 14:05 17.35555 -62.13135 8001 ft 186 kts 308°
2026-05-04 14:06 17.36315 -62.14229 8003 ft 185 kts 308°
2026-05-04 14:06 17.37070 -62.15314 8006 ft 184 kts 308°
2026-05-04 14:06 17.37821 -62.16395 8005 ft 184 kts 308°
2026-05-04 14:06 17.38575 -62.17480 8012 ft 185 kts 308°
2026-05-04 14:07 17.39327 -62.18562 8014 ft 187 kts 308°
2026-05-04 14:07 17.40090 -62.19658 8005 ft 186 kts 308°
2026-05-04 14:07 17.40860 -62.20766 8004 ft 186 kts 308°
2026-05-04 14:07 17.41614 -62.21853 8008 ft 187 kts 308°
2026-05-04 14:08 17.42378 -62.22952 8010 ft 187 kts 308°
2026-05-04 14:08 17.43142 -62.24053 8009 ft 187 kts 307°
2026-05-04 14:08 17.43903 -62.25150 8008 ft 186 kts 307°
2026-05-04 14:08 17.44665 -62.26248 8009 ft 187 kts 308°
2026-05-04 14:09 17.46186 -62.28446 8009 ft 186 kts 307°
2026-05-04 14:09 17.46947 -62.29544 8009 ft 186 kts 307°
2026-05-04 14:10 17.48469 -62.31745 8008 ft 187 kts 308°
2026-05-04 14:10 17.49236 -62.32846 8005 ft 187 kts 307°
2026-05-04 14:10 17.49743 -62.33572 8007 ft 186 kts 308°
2026-05-04 14:10 17.50765 -62.35040 8007 ft 187 kts 308°
2026-05-04 14:11 17.51286 -62.35790 8012 ft 189 kts 308°
2026-05-04 14:11 17.52820 -62.38013 8008 ft 190 kts 307°
2026-05-04 14:11 17.53590 -62.39126 8006 ft 188 kts 307°
2026-05-04 14:12 17.54360 -62.40236 8010 ft 189 kts 308°
2026-05-04 14:12 17.55132 -62.41347 8008 ft 188 kts 307°
2026-05-04 14:12 17.56662 -62.43555 8008 ft 187 kts 307°
2026-05-04 14:13 17.57432 -62.44652 8003 ft 187 kts 308°
2026-05-04 14:13 17.58209 -62.45747 8003 ft 188 kts 308°
2026-05-04 14:13 17.58983 -62.46848 8005 ft 187 kts 307°
2026-05-04 14:13 17.59752 -62.47950 8007 ft 188 kts 307°
2026-05-04 14:14 17.60523 -62.49060 8007 ft 188 kts 308°
2026-05-04 14:14 17.62070 -62.51293 8007 ft 190 kts 307°
2026-05-04 14:14 17.62843 -62.52407 8008 ft 188 kts 307°
2026-05-04 14:15 17.64443 -62.54714 7593 ft 202 kts 307°
2026-05-04 14:15 17.66095 -62.57106 7123 ft 202 kts 307°
2026-05-04 14:16 17.67744 -62.59496 6654 ft 201 kts 308°
2026-05-04 14:16 17.68563 -62.60682 6418 ft 200 kts 308°
2026-05-04 14:17 17.70191 -62.63039 5920 ft 196 kts 308°
2026-05-04 14:17 17.70970 -62.64170 5672 ft 188 kts 308°
2026-05-04 14:17 17.72462 -62.66338 5176 ft 178 kts 308°
2026-05-04 14:18 17.73169 -62.67352 4939 ft 168 kts 308°
2026-05-04 14:18 17.74531 -62.69321 4445 ft 176 kts 307°
2026-05-04 14:19 17.76028 -62.71500 3972 ft 188 kts 308°
2026-05-04 14:19 17.76787 -62.72598 3727 ft 184 kts 307°
2026-05-04 14:19 17.77533 -62.73685 3479 ft 183 kts 307°
2026-05-04 14:19 17.78276 -62.74764 3241 ft 182 kts 307°
2026-05-04 14:20 17.79017 -62.75842 2995 ft 182 kts 307°
2026-05-04 14:20 17.79754 -62.76914 2752 ft 182 kts 307°
2026-05-04 14:20 17.80489 -62.77978 2511 ft 178 kts 307°
2026-05-04 14:21 17.81911 -62.80038 2027 ft 162 kts 308°
2026-05-04 14:21 17.82550 -62.80939 1774 ft 147 kts 309°
2026-05-04 14:21 17.83148 -62.81782 1519 ft 143 kts 310°
2026-05-04 14:21 17.83753 -62.82618 1313 ft 145 kts 309°
2026-05-04 14:22 17.84378 -62.83486 1375 ft 154 kts 309°
2026-05-04 14:22 17.85028 -62.84380 1388 ft 147 kts 309°
2026-05-04 14:22 17.85588 -62.85162 1393 ft 123 kts 309°
2026-05-04 14:22 17.86082 -62.85865 1393 ft 118 kts 309°
2026-05-04 14:23 17.87050 -62.87239 1401 ft 117 kts 309°
2026-05-04 14:23 17.87534 -62.87924 1403 ft 117 kts 309°
2026-05-04 14:23 17.88013 -62.88602 1403 ft 117 kts 309°
2026-05-04 14:24 17.88505 -62.89297 1347 ft 122 kts 309°
2026-05-04 14:24 17.89036 -62.90040 1237 ft 128 kts 309°
2026-05-04 14:24 17.89566 -62.90782 1124 ft 130 kts 309°
2026-05-04 14:24 17.90208 -62.91436 1002 ft 125 kts 345°
2026-05-04 14:25 17.90955 -62.91312 932 ft 103 kts 52°
2026-05-04 14:25 17.90858 -62.90181 918 ft 79 kts 118°
2026-05-04 14:25 17.90558 -62.89710 913 ft 77 kts 116°
2026-05-04 14:26 17.90342 -62.89188 842 ft 81 kts 95°
2026-05-04 14:26 17.90312 -62.88584 753 ft 85 kts 86°
2026-05-04 14:26 17.90333 -62.87979 713 ft 75 kts 86°
2026-05-04 14:26 17.90304 -62.87483 680 ft 68 kts 84°
2026-05-04 14:27 17.90286 -62.86969 654 ft 72 kts 85°
2026-05-04 14:27 17.90288 -62.86461 614 ft 68 kts 81°
2026-05-04 14:27 17.90343 -62.85953 528 ft 70 kts 81°
2026-05-04 14:27 17.90380 -62.85430 391 ft 71 kts 79°
2026-05-04 14:28 17.90416 -62.84910 218 ft 76 kts 79°
2026-05-04 14:28 17.90439 -62.84362 36 ft 64 kts 84°
2026-05-04 14:28 17.90441 -62.84135 19 ft 13 kts 88°
2026-05-04 14:28 17.90455 -62.84067 14 ft 5 kts 149°
2026-05-04 14:29 17.90442 -62.84223 27 ft 17 kts 267°
2026-05-04 14:29 17.90406 -62.84390 38 ft 6 kts 204°
2026-05-04 14:30 17.90381 -62.84390 38 ft 0 kts 143°
2026-05-04 14:30 17.90377 -62.84388 38 ft 0 kts 148°